Flag for Germany Weather past 2 weeks in Eisenhüttenstadt, Brandenburg, Germany

Now
56 °F

Passing clouds.


Feels Like: 56 °F
Forecast: 52 / 70 °F
Wind: 3 mph from Southwest

Location: Lindenberg

Current Time: Aug 20, 2014 at 10:59:01 PM

Latest Report: Aug 20, 2014 at 10:00 PM


Visibility: 31 mi

Pressure: 29.97 "Hg

Humidity: 67%

Dew point: 45 °F

Location of EisenhüttenstadtLocation

Historic Weather in Eisenhüttenstadt — Graph

°F

Eisenhüttenstadt temperature yesterday

Maximum temperature yesterday: 68 °F (at 3:00 PM)
Minimum temperature yesterday: 52 °F (at 4:00 AM)
Average temperature yesterday: 59 °F

Past Weeks' High & Low Weather Summary

 TemperatureHumidityPressure
High83 °F (Aug 10, 6:00 PM)98% (Aug 6, 5:00 AM)30.06 "Hg (Aug 6, 5:00 AM)
Low48 °F (Aug 20, 7:00 AM)35% (Aug 12, 7:00 PM)29.63 "Hg (Aug 14, 12:00 AM)
Average64 °F73%29.86 "Hg
* Reported Aug 5 9:00 PM — Aug 20 9:00 PM, Eisenhüttenstadt, Weather by CustomWeather, © 2014

Note: Actual official high and low records may vary slightly from our data, if they occured in-between our weather recording intervals... More about our weather records

Advertising

Eisenhüttenstadt weather history for previous 24 hours

 ConditionsComfort  
Time TempWeatherWind HumidityBarometerVisibility
9:00 PM
Aug 20
57 °FPassing clouds.3 mph64%29.96 "Hg31 mi
8:00 PM61 °FPartly sunny.2 mph59%29.95 "Hg31 mi
7:00 PM63 °FPartly sunny.5 mph53%29.95 "Hg31 mi
6:00 PM63 °FPartly sunny.6 mph51%29.95 "Hg31 mi
4:00 PM63 °FPartly sunny.6 mph53%29.96 "Hg31 mi
3:00 PM62 °FPartly sunny.7 mph59%29.96 "Hg31 mi
2:00 PM62 °FPartly sunny.6 mph58%29.96 "Hg31 mi
1:00 PM60 °FPartly sunny.6 mph65%29.96 "Hg31 mi
12:00 PM59 °FPartly sunny.7 mph65%29.95 "Hg25 mi
11:00 AM57 °FPartly sunny.6 mph71%29.96 "Hg25 mi
10:00 AM54 °FPartly sunny.7 mph77%29.95 "Hg19 mi
9:00 AM53 °FScattered clouds.8 mph82%29.93 "Hg12 mi
8:00 AM50 °FSunny.6 mph86%29.92 "Hg12 mi
7:00 AM48 °FSunny.6 mph93%29.91 "Hg12 mi
6:00 AM49 °FSunny.5 mph91%29.90 "Hg16 mi
4:00 AM51 °FPassing clouds.6 mph92%29.88 "Hg16 mi
3:00 AM50 °FClear.5 mph96%29.87 "Hg16 mi
2:00 AM51 °FPassing clouds.5 mph95%29.86 "Hg19 mi
1:00 AM51 °FPassing clouds.3 mph94%29.86 "Hg12 mi
12:00 AM52 °FLight rain. Overcast.3 mph92%29.86 "Hg9 mi
11:00 PM
Aug 19
53 °FLight rain. Overcast.3 mph92%29.86 "Hg6 mi
10:00 PM55 °FLight rain. Overcast.6 mph86%29.85 "Hg7 mi
Weather by CustomWeather, © 2014

See weather overviewHow to use our weather pages